Time,TemperatureF,DewpointF,PressureIn,WindDirection,WindDirectionDegrees,WindSpeedMPH,WindSpeedGustMPH,Humidity,HourlyPrecipIn,Conditions,Clouds,dailyrainin,SoftwareType,DateUTC
2013-07-06 00:04:00,71.2,67.2,29.12,South,184,0.0,0.0,87,0.00,,SKC,0.00,VWS V14.00,2013-07-06 04:04:00,
2013-07-06 00:09:00,71.2,67.2,29.12,South,184,0.0,0.0,87,0.00,,SKC,0.00,VWS V14.00,2013-07-06 04:09:00,
2013-07-06 00:14:00,71.2,67.2,29.12,South,184,0.0,0.0,87,0.00,,SKC,0.00,VWS V14.00,2013-07-06 04:14:00,
2013-07-06 00:19:00,71.2,67.2,29.12,South,184,0.0,0.0,87,0.00,,SKC,0.00,VWS V14.00,2013-07-06 04:19:00,
2013-07-06 00:24:00,71.1,67.0,29.12,South,184,0.0,0.0,87,0.00,,SKC,0.00,VWS V14.00,2013-07-06 04:24:00,
2013-07-06 00:29:00,71.1,67.0,29.12,South,184,0.0,0.0,87,0.00,,SKC,0.00,VWS V14.00,2013-07-06 04:29:00,
2013-07-06 00:34:00,71.2,67.2,29.12,South,184,0.0,0.0,87,0.00,,SKC,0.00,VWS V14.00,2013-07-06 04:34:00,
2013-07-06 00:39:00,71.1,67.0,29.12,South,184,0.0,0.0,87,0.00,,SKC,0.00,VWS V14.00,2013-07-06 04:39:00,
2013-07-06 00:44:00,71.1,67.0,29.12,South,184,0.0,0.0,87,0.00,,SKC,0.00,VWS V14.00,2013-07-06 04:44:00,
2013-07-06 00:49:00,71.1,67.3,29.12,South,184,0.0,0.0,88,0.00,,SKC,0.00,VWS V14.00,2013-07-06 04:49:00,
2013-07-06 00:54:00,71.1,67.3,29.12,South,184,0.0,0.0,88,0.00,,SKC,0.00,VWS V14.00,2013-07-06 04:54:00,
2013-07-06 00:59:00,71.1,67.3,29.12,South,184,0.0,0.0,88,0.00,,SKC,0.00,VWS V14.00,2013-07-06 04:59:00,
2013-07-06 01:04:00,71.1,67.3,29.12,South,184,0.0,0.0,88,0.00,,SKC,0.00,VWS V14.00,2013-07-06 05:04:00,
2013-07-06 01:09:00,71.1,67.3,29.12,South,184,0.0,0.0,88,0.00,,SKC,0.00,VWS V14.00,2013-07-06 05:09:00,
2013-07-06 01:14:00,71.1,67.3,29.12,South,184,0.0,0.0,88,0.00,,SKC,0.00,VWS V14.00,2013-07-06 05:14:00,
2013-07-06 01:19:00,71.1,67.3,29.12,South,184,0.0,0.0,88,0.00,,SKC,0.00,VWS V14.00,2013-07-06 05:19:00,
2013-07-06 01:24:00,71.1,67.3,29.12,South,184,0.0,0.0,88,0.00,,SKC,0.00,VWS V14.00,2013-07-06 05:24:00,
2013-07-06 01:29:00,71.1,67.3,29.12,South,184,0.0,0.0,88,0.00,,SKC,0.00,VWS V14.00,2013-07-06 05:29:00,
2013-07-06 01:34:00,71.1,67.3,29.12,North,11,0.0,0.0,88,0.04,,SKC,0.04,VWS V14.00,2013-07-06 05:34:00,
2013-07-06 01:39:00,71.1,67.3,29.12,NE,41,0.0,2.7,88,0.04,,SKC,0.04,VWS V14.00,2013-07-06 05:39:00,
2013-07-06 01:44:00,71.1,67.7,29.12,NE,41,0.0,0.0,89,0.04,,SKC,0.04,VWS V14.00,2013-07-06 05:44:00,
2013-07-06 01:49:00,71.1,67.7,29.12,NE,41,0.0,0.0,89,0.04,,SKC,0.04,VWS V14.00,2013-07-06 05:49:00,
2013-07-06 01:54:00,71.1,67.7,29.12,NE,41,0.0,0.0,89,0.04,,SKC,0.04,VWS V14.00,2013-07-06 05:54:00,
2013-07-06 01:59:00,71.1,67.7,29.12,NE,41,0.0,0.0,89,0.08,,SKC,0.08,VWS V14.00,2013-07-06 05:59:00,
2013-07-06 02:04:00,71.1,67.7,29.12,NE,41,0.0,0.0,89,0.08,,SKC,0.08,VWS V14.00,2013-07-06 06:04:00,
2013-07-06 02:09:00,71.1,67.7,29.12,NE,41,0.0,0.0,89,0.08,,SKC,0.08,VWS V14.00,2013-07-06 06:09:00,
2013-07-06 02:14:00,70.9,67.5,29.12,NE,41,0.0,0.0,89,0.08,,SKC,0.08,VWS V14.00,2013-07-06 06:14:00,
2013-07-06 02:19:00,70.9,67.5,29.12,NE,41,3.8,3.8,89,0.08,,SKC,0.08,VWS V14.00,2013-07-06 06:19:00,
2013-07-06 02:24:00,70.9,67.5,29.12,NE,38,0.0,0.0,89,0.08,,SKC,0.08,VWS V14.00,2013-07-06 06:24:00,
2013-07-06 02:29:00,70.9,67.5,29.12,NE,35,0.0,3.6,89,0.08,,SKC,0.08,VWS V14.00,2013-07-06 06:29:00,
2013-07-06 02:34:00,70.7,67.3,29.09,NNE,33,2.7,4.5,89,0.08,,SKC,0.08,VWS V14.00,2013-07-06 06:34:00,
2013-07-06 02:39:00,70.7,67.3,29.09,NE,35,0.0,4.5,89,0.08,,SKC,0.08,VWS V14.00,2013-07-06 06:39:00,
2013-07-06 02:44:00,70.7,67.3,29.09,NE,35,0.0,0.0,89,0.04,,SKC,0.08,VWS V14.00,2013-07-06 06:44:00,
2013-07-06 02:49:00,70.7,67.3,29.12,NE,35,0.0,0.0,89,0.04,,SKC,0.08,VWS V14.00,2013-07-06 06:49:00,
2013-07-06 02:54:00,70.5,67.4,29.12,NE,35,0.0,0.0,90,0.04,,SKC,0.08,VWS V14.00,2013-07-06 06:54:00,
2013-07-06 02:59:00,70.5,67.1,29.12,NE,34,0.0,0.0,89,0.04,,SKC,0.08,VWS V14.00,2013-07-06 06:59:00,
2013-07-06 03:04:00,70.5,67.1,29.12,NE,35,0.0,0.0,89,0.00,,SKC,0.08,VWS V14.00,2013-07-06 07:04:00,
2013-07-06 03:09:00,70.5,67.4,29.09,NE,34,0.0,0.0,90,0.00,,SKC,0.08,VWS V14.00,2013-07-06 07:09:00,
2013-07-06 03:14:00,70.5,67.4,29.09,NE,35,0.0,0.0,90,0.00,,SKC,0.08,VWS V14.00,2013-07-06 07:14:00,
2013-07-06 03:19:00,70.5,67.4,29.09,NE,35,0.0,0.0,90,0.00,,SKC,0.08,VWS V14.00,2013-07-06 07:19:00,
2013-07-06 03:24:00,70.3,67.3,29.09,NE,34,0.0,0.0,90,0.00,,SKC,0.08,VWS V14.00,2013-07-06 07:24:00,
2013-07-06 03:29:00,70.3,67.3,29.09,NE,35,0.0,0.0,90,0.00,,SKC,0.08,VWS V14.00,2013-07-06 07:29:00,
2013-07-06 03:34:00,70.3,67.3,29.09,NE,35,0.0,0.0,90,0.00,,SKC,0.08,VWS V14.00,2013-07-06 07:34:00,
2013-07-06 03:39:00,70.3,67.3,29.09,NE,35,0.0,0.0,90,0.00,,SKC,0.08,VWS V14.00,2013-07-06 07:39:00,
2013-07-06 03:44:00,70.3,67.3,29.09,NE,35,0.0,0.0,90,0.00,,SKC,0.08,VWS V14.00,2013-07-06 07:44:00,
2013-07-06 03:50:00,70.3,67.3,29.09,NE,35,0.0,0.0,90,0.00,,SKC,0.08,VWS V14.00,2013-07-06 07:50:00,
2013-07-06 03:55:00,70.3,67.3,29.09,NE,35,0.0,0.0,90,0.00,,SKC,0.08,VWS V14.00,2013-07-06 07:55:00,
2013-07-06 04:00:00,70.3,67.3,29.09,NE,35,0.0,0.0,90,0.00,,SKC,0.08,VWS V14.00,2013-07-06 08:00:00,
2013-07-06 04:05:00,70.3,67.3,29.09,NE,35,0.0,0.0,90,0.00,,SKC,0.08,VWS V14.00,2013-07-06 08:05:00,
2013-07-06 04:10:00,70.3,67.3,29.09,NE,35,0.0,0.0,90,0.00,,SKC,0.08,VWS V14.00,2013-07-06 08:10:00,
2013-07-06 04:15:00,70.3,67.3,29.09,NE,35,0.0,0.0,90,0.00,,SKC,0.08,VWS V14.00,2013-07-06 08:15:00,
2013-07-06 04:20:00,70.3,67.3,29.09,NE,35,0.0,0.0,90,0.00,,SKC,0.08,VWS V14.00,2013-07-06 08:20:00,
2013-07-06 04:25:00,70.3,67.3,29.09,NE,35,0.0,0.0,90,0.00,,SKC,0.08,VWS V14.00,2013-07-06 08:25:00,
2013-07-06 04:30:00,70.2,67.1,29.09,NE,35,0.0,0.0,90,0.00,,SKC,0.08,VWS V14.00,2013-07-06 08:30:00,
2013-07-06 04:35:00,70.2,67.1,29.09,NE,35,0.0,0.0,90,0.00,,SKC,0.08,VWS V14.00,2013-07-06 08:35:00,
2013-07-06 04:40:00,70.2,67.1,29.09,NE,35,0.0,0.0,90,0.00,,SKC,0.08,VWS V14.00,2013-07-06 08:40:00,
2013-07-06 04:45:00,70.2,67.1,29.09,NE,35,0.0,0.0,90,0.00,,SKC,0.08,VWS V14.00,2013-07-06 08:45:00,
2013-07-06 04:50:00,70.2,67.1,29.09,NE,35,0.0,0.0,90,0.00,,SKC,0.08,VWS V14.00,2013-07-06 08:50:00,
2013-07-06 04:55:00,70.2,67.1,29.09,NE,35,0.0,0.0,90,0.00,,SKC,0.08,VWS V14.00,2013-07-06 08:55:00,
2013-07-06 05:00:00,70.2,67.1,29.09,NE,35,0.0,0.0,90,0.00,,SKC,0.08,VWS V14.00,2013-07-06 09:00:00,
2013-07-06 05:05:00,70.2,67.1,29.09,NE,35,0.0,0.0,90,0.00,,SKC,0.08,VWS V14.00,2013-07-06 09:05:00,
2013-07-06 05:10:00,70.0,66.9,29.09,NE,35,0.0,0.0,90,0.00,,SKC,0.08,VWS V14.00,2013-07-06 09:10:00,
2013-07-06 05:15:00,70.0,67.2,29.09,NE,35,0.0,0.0,91,0.00,,SKC,0.08,VWS V14.00,2013-07-06 09:15:00,
2013-07-06 05:20:00,70.0,67.2,29.09,NE,35,0.0,0.0,91,0.00,,SKC,0.08,VWS V14.00,2013-07-06 09:20:00,
2013-07-06 05:25:00,70.0,67.2,29.09,NE,35,0.0,0.0,91,0.00,,SKC,0.08,VWS V14.00,2013-07-06 09:25:00,
2013-07-06 05:30:00,70.0,67.2,29.09,NE,35,0.0,0.0,91,0.00,,SKC,0.08,VWS V14.00,2013-07-06 09:30:00,
2013-07-06 05:35:00,70.0,67.2,29.09,NE,35,0.0,0.0,91,0.00,,SKC,0.08,VWS V14.00,2013-07-06 09:35:00,
2013-07-06 05:40:00,70.0,67.2,29.09,NE,35,0.0,0.0,91,0.00,,SKC,0.08,VWS V14.00,2013-07-06 09:40:00,
2013-07-06 05:45:00,69.8,67.1,29.09,NE,35,0.0,0.0,91,0.00,,SKC,0.08,VWS V14.00,2013-07-06 09:45:00,
2013-07-06 05:50:00,69.8,67.1,29.09,NE,35,0.0,0.0,91,0.00,,SKC,0.08,VWS V14.00,2013-07-06 09:50:00,
2013-07-06 05:55:00,69.8,67.1,29.09,NE,35,0.0,0.0,91,0.00,,SKC,0.08,VWS V14.00,2013-07-06 09:55:00,
2013-07-06 06:00:00,69.8,67.1,29.09,NE,35,0.0,0.0,91,0.00,,SKC,0.08,VWS V14.00,2013-07-06 10:00:00,
2013-07-06 06:05:00,69.8,67.1,29.09,NE,35,0.0,0.0,91,0.00,,SKC,0.08,VWS V14.00,2013-07-06 10:05:00,
2013-07-06 06:10:00,69.8,67.1,29.09,NE,35,0.0,0.0,91,0.00,,SKC,0.08,VWS V14.00,2013-07-06 10:10:00,
2013-07-06 06:15:00,69.8,67.1,29.09,NE,35,0.0,0.0,91,0.00,,SKC,0.08,VWS V14.00,2013-07-06 10:15:00,
2013-07-06 06:20:00,69.8,67.1,29.09,NE,35,0.0,0.0,91,0.00,,SKC,0.08,VWS V14.00,2013-07-06 10:20:00,
2013-07-06 06:25:00,69.6,66.9,29.09,NE,35,0.0,0.0,91,0.00,,SKC,0.08,VWS V14.00,2013-07-06 10:25:00,
2013-07-06 06:30:00,69.8,67.1,29.09,NE,35,0.0,0.0,91,0.00,,SKC,0.08,VWS V14.00,2013-07-06 10:30:00,
2013-07-06 06:35:00,69.8,67.1,29.09,NE,35,0.0,0.0,91,0.00,,SKC,0.08,VWS V14.00,2013-07-06 10:35:00,
2013-07-06 06:40:00,69.8,67.1,29.09,NE,35,0.0,0.0,91,0.00,,SKC,0.08,VWS V14.00,2013-07-06 10:40:00,
2013-07-06 06:45:00,69.8,67.1,29.09,NE,35,0.0,0.0,91,0.00,,SKC,0.08,VWS V14.00,2013-07-06 10:45:00,
2013-07-06 06:50:00,69.8,67.1,29.09,NE,35,0.0,0.0,91,0.00,,SKC,0.08,VWS V14.00,2013-07-06 10:50:00,
2013-07-06 06:55:00,69.8,67.1,29.09,NE,35,0.0,0.0,91,0.00,,SKC,0.08,VWS V14.00,2013-07-06 10:55:00,
2013-07-06 07:00:00,69.8,67.1,29.09,NE,35,0.0,0.0,91,0.00,,SKC,0.08,VWS V14.00,2013-07-06 11:00:00,
2013-07-06 07:05:00,70.0,67.2,29.09,NE,35,0.0,0.0,91,0.00,,SKC,0.08,VWS V14.00,2013-07-06 11:05:00,
2013-07-06 07:10:00,70.0,67.2,29.09,NE,35,0.0,0.0,91,0.00,,SKC,0.08,VWS V14.00,2013-07-06 11:10:00,
2013-07-06 07:15:00,70.0,67.2,29.09,NE,35,0.0,0.0,91,0.00,,SKC,0.08,VWS V14.00,2013-07-06 11:15:00,
2013-07-06 07:20:00,70.0,67.2,29.12,NE,35,0.0,0.0,91,0.00,,SKC,0.08,VWS V14.00,2013-07-06 11:20:00,
2013-07-06 07:25:00,70.0,67.2,29.12,NE,35,0.0,0.0,91,0.00,,SKC,0.08,VWS V14.00,2013-07-06 11:25:00,
2013-07-06 07:30:00,70.0,67.2,29.12,NE,35,0.0,0.0,91,0.00,,SKC,0.08,VWS V14.00,2013-07-06 11:30:00,
2013-07-06 07:35:00,70.2,67.4,29.12,NE,35,0.0,0.0,91,0.00,,SKC,0.08,VWS V14.00,2013-07-06 11:35:00,
2013-07-06 07:40:00,70.2,67.7,29.12,NE,35,0.0,0.0,92,0.00,,SKC,0.08,VWS V14.00,2013-07-06 11:40:00,
2013-07-06 07:45:00,70.3,67.9,29.12,NE,35,0.0,0.0,92,0.00,,SKC,0.08,VWS V14.00,2013-07-06 11:45:00,
2013-07-06 07:50:00,70.3,67.9,29.12,NE,35,0.0,0.0,92,0.00,,SKC,0.08,VWS V14.00,2013-07-06 11:50:00,
2013-07-06 07:55:00,70.5,68.1,29.12,NE,35,0.0,0.0,92,0.00,,SKC,0.08,VWS V14.00,2013-07-06 11:55:00,
2013-07-06 08:00:00,70.7,68.3,29.12,NE,35,0.0,0.0,92,0.00,,SKC,0.08,VWS V14.00,2013-07-06 12:00:00,
2013-07-06 08:05:00,70.9,68.4,29.12,NE,35,0.0,0.0,92,0.00,,SKC,0.08,VWS V14.00,2013-07-06 12:05:00,
2013-07-06 08:10:00,71.1,68.6,29.12,NE,35,0.0,0.0,92,0.00,,SKC,0.08,VWS V14.00,2013-07-06 12:10:00,
2013-07-06 08:15:00,71.4,69.0,29.12,NE,35,0.0,0.0,92,0.00,,SKC,0.08,VWS V14.00,2013-07-06 12:15:00,
2013-07-06 08:20:00,71.4,69.0,29.12,NE,35,0.0,0.0,92,0.00,,SKC,0.08,VWS V14.00,2013-07-06 12:20:00,
2013-07-06 08:25:00,71.6,69.2,29.12,NE,35,0.0,0.0,92,0.00,,SKC,0.08,VWS V14.00,2013-07-06 12:25:00,
2013-07-06 08:30:00,71.8,69.3,29.12,NE,35,0.0,0.0,92,0.00,,SKC,0.08,VWS V14.00,2013-07-06 12:30:00,
2013-07-06 08:35:00,72.0,69.5,29.12,NE,35,0.0,0.0,92,0.00,,SKC,0.08,VWS V14.00,2013-07-06 12:35:00,
2013-07-06 08:40:00,72.0,69.5,29.12,NE,35,0.0,0.0,92,0.00,,SKC,0.08,VWS V14.00,2013-07-06 12:40:00,
2013-07-06 08:45:00,72.1,70.0,29.12,NE,35,0.0,0.0,93,0.00,,SKC,0.08,VWS V14.00,2013-07-06 12:45:00,
2013-07-06 08:50:00,72.3,70.2,29.12,NE,35,0.0,0.0,93,0.00,,SKC,0.08,VWS V14.00,2013-07-06 12:50:00,
2013-07-06 08:55:00,72.7,70.5,29.12,NE,35,0.0,0.0,93,0.00,,SKC,0.08,VWS V14.00,2013-07-06 12:55:00,
2013-07-06 09:00:00,73.2,71.1,29.12,NE,35,0.0,0.0,93,0.00,,SKC,0.08,VWS V14.00,2013-07-06 13:00:00,
2013-07-06 09:05:00,73.9,71.8,29.12,NE,35,0.0,0.0,93,0.00,,SKC,0.08,VWS V14.00,2013-07-06 13:05:00,
2013-07-06 09:10:00,74.5,72.3,29.12,NE,35,0.0,0.0,93,0.00,,SKC,0.08,VWS V14.00,2013-07-06 13:10:00,
2013-07-06 09:16:00,75.0,72.9,29.12,NE,35,0.0,0.0,93,0.00,,SKC,0.08,VWS V14.00,2013-07-06 13:16:00,
2013-07-06 09:21:00,75.0,72.5,29.12,NE,35,0.0,0.0,92,0.00,,SKC,0.08,VWS V14.00,2013-07-06 13:21:00,
2013-07-06 09:26:00,75.0,72.5,29.12,NE,35,0.0,0.0,92,0.00,,SKC,0.08,VWS V14.00,2013-07-06 13:26:00,
2013-07-06 09:31:00,75.0,72.5,29.12,NE,35,0.0,0.0,92,0.00,,SKC,0.08,VWS V14.00,2013-07-06 13:31:00,
2013-07-06 09:36:00,75.6,73.1,29.12,NE,35,0.0,0.0,92,0.00,,SKC,0.08,VWS V14.00,2013-07-06 13:36:00,
2013-07-06 09:41:00,75.9,73.4,29.12,NE,35,0.0,0.0,92,0.00,,SKC,0.08,VWS V14.00,2013-07-06 13:41:00,
2013-07-06 09:46:00,76.5,74.0,29.12,NE,35,0.0,0.0,92,0.00,,SKC,0.08,VWS V14.00,2013-07-06 13:46:00,
2013-07-06 09:51:00,76.5,73.6,29.12,NE,35,0.0,0.0,91,0.00,,SKC,0.08,VWS V14.00,2013-07-06 13:51:00,
2013-07-06 09:56:00,76.5,73.6,29.12,NE,35,0.0,0.0,91,0.00,,SKC,0.08,VWS V14.00,2013-07-06 13:56:00,
2013-07-06 10:01:00,76.5,73.6,29.12,NE,35,0.0,0.0,91,0.00,,SKC,0.08,VWS V14.00,2013-07-06 14:01:00,
2013-07-06 10:06:00,76.6,73.8,29.12,NE,35,0.0,0.0,91,0.00,,SKC,0.08,VWS V14.00,2013-07-06 14:06:00,
2013-07-06 10:11:00,76.6,73.8,29.12,NE,35,0.0,0.0,91,0.00,,SKC,0.08,VWS V14.00,2013-07-06 14:11:00,
2013-07-06 10:16:00,76.6,73.5,29.12,NE,35,0.0,0.0,90,0.00,,SKC,0.08,VWS V14.00,2013-07-06 14:16:00,
2013-07-06 10:21:00,76.6,73.5,29.12,NE,35,0.0,0.0,90,0.00,,SKC,0.08,VWS V14.00,2013-07-06 14:21:00,
2013-07-06 10:26:00,76.5,73.3,29.12,NE,35,0.0,0.0,90,0.00,,SKC,0.08,VWS V14.00,2013-07-06 14:26:00,
2013-07-06 10:31:00,76.5,73.3,29.12,NE,35,0.0,0.0,90,0.00,,SKC,0.08,VWS V14.00,2013-07-06 14:31:00,
2013-07-06 10:36:00,76.6,73.5,29.12,NE,35,0.0,0.0,90,0.00,,SKC,0.08,VWS V14.00,2013-07-06 14:36:00,
2013-07-06 10:41:00,77.0,73.8,29.12,NE,35,0.0,0.0,90,0.00,,SKC,0.08,VWS V14.00,2013-07-06 14:41:00,
2013-07-06 10:46:00,77.0,73.8,29.12,NE,35,0.0,0.0,90,0.00,,SKC,0.08,VWS V14.00,2013-07-06 14:46:00,
2013-07-06 10:51:00,77.0,73.8,29.12,NE,35,0.0,0.0,90,0.00,,SKC,0.08,VWS V14.00,2013-07-06 14:51:00,
2013-07-06 10:56:00,77.2,74.0,29.12,NE,35,0.0,0.0,90,0.00,,SKC,0.08,VWS V14.00,2013-07-06 14:56:00,
2013-07-06 11:01:00,77.4,74.2,29.12,NE,35,0.0,0.0,90,0.00,,SKC,0.08,VWS V14.00,2013-07-06 15:01:00,
2013-07-06 11:06:00,77.7,74.2,29.12,NE,35,0.0,0.0,89,0.00,,SKC,0.08,VWS V14.00,2013-07-06 15:06:00,
2013-07-06 11:11:00,77.9,74.4,29.12,NE,35,0.0,0.0,89,0.00,,SKC,0.08,VWS V14.00,2013-07-06 15:11:00,
2013-07-06 11:16:00,78.1,74.6,29.12,NE,35,0.0,0.0,89,0.00,,SKC,0.08,VWS V14.00,2013-07-06 15:16:00,
2013-07-06 11:21:00,78.1,74.6,29.12,NE,35,0.0,0.0,89,0.00,,SKC,0.08,VWS V14.00,2013-07-06 15:21:00,
2013-07-06 11:26:00,78.3,74.8,29.12,NE,35,0.0,0.0,89,0.00,,SKC,0.08,VWS V14.00,2013-07-06 15:26:00,
2013-07-06 11:31:00,78.4,74.6,29.12,NE,35,0.0,0.0,88,0.00,,SKC,0.08,VWS V14.00,2013-07-06 15:31:00,
2013-07-06 11:36:00,79.0,75.1,29.12,NE,35,0.0,0.0,88,0.00,,SKC,0.08,VWS V14.00,2013-07-06 15:36:00,
2013-07-06 11:41:00,79.3,75.5,29.12,NE,35,0.0,0.0,88,0.00,,SKC,0.08,VWS V14.00,2013-07-06 15:41:00,
2013-07-06 11:46:00,79.3,75.5,29.12,NE,35,0.0,0.0,88,0.00,,SKC,0.08,VWS V14.00,2013-07-06 15:46:00,
2013-07-06 11:51:00,79.3,75.5,29.12,NE,34,0.0,0.0,88,0.00,,SKC,0.08,VWS V14.00,2013-07-06 15:51:00,
2013-07-06 11:56:00,79.3,75.5,29.12,NE,34,0.0,0.0,88,0.00,,SKC,0.08,VWS V14.00,2013-07-06 15:56:00,
2013-07-06 12:01:00,79.3,75.1,29.12,SE,146,0.0,0.0,87,0.00,,SKC,0.08,VWS V14.00,2013-07-06 16:01:00,
2013-07-06 12:10:00,79.0,74.8,29.12,SE,146,0.0,0.0,87,0.00,,SKC,0.08,VWS V14.00,2013-07-06 16:10:00,
2013-07-06 12:20:00,79.0,74.8,29.12,SSE,147,0.0,0.0,87,0.00,,SKC,0.08,VWS V14.00,2013-07-06 16:20:00,
2013-07-06 12:30:00,79.0,74.4,29.12,NNE,29,0.0,0.0,86,0.00,,SKC,0.08,VWS V14.00,2013-07-06 16:30:00,
2013-07-06 12:42:00,78.8,73.9,29.09,NNE,18,0.0,0.0,85,0.00,,SKC,0.08,VWS V14.00,2013-07-06 16:42:00,
2013-07-06 12:47:00,79.3,74.4,29.09,NNE,28,0.0,3.6,85,0.00,,SKC,0.08,VWS V14.00,2013-07-06 16:47:00,
2013-07-06 12:52:00,79.7,74.4,29.09,NNE,30,0.0,0.0,84,0.00,,SKC,0.08,VWS V14.00,2013-07-06 16:52:00,
2013-07-06 12:57:00,79.9,74.3,29.09,NNE,30,0.0,0.0,83,0.00,,SKC,0.08,VWS V14.00,2013-07-06 16:57:00,
2013-07-06 13:02:00,79.9,74.3,29.09,NNE,30,0.0,0.0,83,0.00,,SKC,0.08,VWS V14.00,2013-07-06 17:02:00,
2013-07-06 13:20:00,79.0,73.4,29.09,SW,228,0.0,0.0,83,0.00,,SKC,0.08,VWS V14.00,2013-07-06 17:20:00,
2013-07-06 13:28:00,79.2,73.9,29.09,SW,228,0.0,0.0,84,0.00,,SKC,0.08,VWS V14.00,2013-07-06 17:28:00,
2013-07-06 13:33:00,79.9,75.0,29.09,SW,228,0.0,0.0,85,0.00,,SKC,0.08,VWS V14.00,2013-07-06 17:33:00,
2013-07-06 13:38:00,80.4,75.2,29.09,ESE,122,0.0,0.0,84,0.00,,SKC,0.08,VWS V14.00,2013-07-06 17:38:00,
2013-07-06 13:43:00,80.4,75.2,29.09,ESE,122,0.0,0.0,84,0.00,,SKC,0.08,VWS V14.00,2013-07-06 17:43:00,
2013-07-06 13:48:00,80.4,75.2,29.09,ESE,122,0.0,0.0,84,0.00,,SKC,0.08,VWS V14.00,2013-07-06 17:48:00,
2013-07-06 13:53:00,80.8,75.5,29.09,ESE,122,0.0,0.0,84,0.00,,SKC,0.08,VWS V14.00,2013-07-06 17:53:00,
2013-07-06 13:58:00,80.6,75.3,29.09,ESE,122,0.0,0.0,84,0.00,,SKC,0.08,VWS V14.00,2013-07-06 17:58:00,
2013-07-06 14:08:00,81.0,75.3,29.09,ESE,122,0.0,0.0,83,0.00,,SKC,0.08,VWS V14.00,2013-07-06 18:08:00,
2013-07-06 14:13:00,81.0,75.3,29.09,ESE,122,0.0,0.0,83,0.00,,SKC,0.08,VWS V14.00,2013-07-06 18:13:00,
2013-07-06 14:23:00,81.1,75.1,29.06,ESE,122,0.0,0.0,82,0.00,,SKC,0.08,VWS V14.00,2013-07-06 18:23:00,
2013-07-06 14:28:00,81.0,74.9,29.06,ESE,122,0.0,0.0,82,0.00,,SKC,0.08,VWS V14.00,2013-07-06 18:28:00,
2013-07-06 14:33:00,81.3,75.3,29.06,ESE,122,0.0,0.0,82,0.00,,SKC,0.08,VWS V14.00,2013-07-06 18:33:00,
2013-07-06 14:38:00,81.3,74.9,29.06,ESE,122,0.0,0.0,81,0.00,,SKC,0.08,VWS V14.00,2013-07-06 18:38:00,
2013-07-06 14:48:00,81.3,74.2,29.06,East,93,0.0,0.0,79,0.00,,SKC,0.08,VWS V14.00,2013-07-06 18:48:00,
2013-07-06 14:53:00,81.3,74.2,29.06,East,93,0.0,0.0,79,0.00,,SKC,0.08,VWS V14.00,2013-07-06 18:53:00,
2013-07-06 14:59:00,81.1,74.4,29.06,East,93,0.0,0.0,80,0.00,,SKC,0.08,VWS V14.00,2013-07-06 18:59:00,
2013-07-06 15:04:00,81.0,73.8,29.06,East,93,0.0,0.0,79,0.00,,SKC,0.08,VWS V14.00,2013-07-06 19:04:00,
2013-07-06 15:09:00,81.1,74.4,29.06,East,93,0.0,0.0,80,0.00,,SKC,0.08,VWS V14.00,2013-07-06 19:09:00,
2013-07-06 15:14:00,80.8,72.9,29.06,WNW,286,4.3,5.8,77,0.00,,SKC,0.08,VWS V14.00,2013-07-06 19:14:00,
2013-07-06 15:20:00,78.1,68.3,29.09,WNW,289,4.3,6.3,72,0.00,,SKC,0.08,VWS V14.00,2013-07-06 19:20:00,
2013-07-06 15:29:00,75.2,66.7,29.09,West,274,3.2,5.8,75,0.00,,SKC,0.08,VWS V14.00,2013-07-06 19:29:00,
2013-07-06 15:44:00,72.5,65.3,29.09,SW,223,0.0,2.2,78,0.20,,SKC,0.28,VWS V14.00,2013-07-06 19:44:00,
2013-07-06 15:49:00,72.1,65.3,29.09,SW,223,0.0,2.2,79,0.20,,SKC,0.28,VWS V14.00,2013-07-06 19:49:00,
2013-07-06 15:54:00,71.8,64.9,29.09,ENE,78,0.0,0.0,79,0.20,,SKC,0.28,VWS V14.00,2013-07-06 19:54:00,
2013-07-06 15:59:00,71.6,65.1,29.09,ENE,78,0.0,0.0,80,0.20,,SKC,0.28,VWS V14.00,2013-07-06 19:59:00,
2013-07-06 16:04:00,71.6,65.1,29.09,ENE,78,0.0,0.0,80,0.20,,SKC,0.28,VWS V14.00,2013-07-06 20:04:00,
2013-07-06 16:09:00,71.6,65.5,29.09,ENE,78,0.0,0.0,81,0.20,,SKC,0.28,VWS V14.00,2013-07-06 20:09:00,
2013-07-06 16:14:00,71.4,65.3,29.09,ENE,78,0.0,0.0,81,0.20,,SKC,0.28,VWS V14.00,2013-07-06 20:14:00,
2013-07-06 16:19:00,71.4,65.3,29.09,East,79,0.0,0.0,81,0.20,,SKC,0.28,VWS V14.00,2013-07-06 20:19:00,
2013-07-06 16:30:00,71.4,65.6,29.09,East,100,0.0,0.0,82,0.24,,SKC,0.32,VWS V14.00,2013-07-06 20:30:00,
2013-07-06 16:35:00,71.2,65.5,29.12,SSW,196,0.0,0.0,82,0.24,,SKC,0.32,VWS V14.00,2013-07-06 20:35:00,
2013-07-06 16:45:00,71.1,65.3,29.12,South,191,0.0,0.0,82,0.08,,SKC,0.32,VWS V14.00,2013-07-06 20:45:00,
2013-07-06 16:50:00,70.7,65.3,29.12,South,191,0.0,0.0,83,0.08,,SKC,0.32,VWS V14.00,2013-07-06 20:50:00,
2013-07-06 16:55:00,70.5,65.1,29.12,South,176,0.0,0.0,83,0.04,,SKC,0.32,VWS V14.00,2013-07-06 20:55:00,
2013-07-06 17:00:00,70.7,65.3,29.12,SSE,147,0.0,2.7,83,0.04,,SKC,0.32,VWS V14.00,2013-07-06 21:00:00,
2013-07-06 17:10:00,70.5,65.1,29.12,SSE,147,0.0,0.0,83,0.04,,SKC,0.32,VWS V14.00,2013-07-06 21:10:00,
2013-07-06 17:15:00,70.5,65.5,29.12,SSE,147,0.0,0.0,84,0.04,,SKC,0.32,VWS V14.00,2013-07-06 21:15:00,
2013-07-06 17:20:00,70.5,65.5,29.12,SSE,147,0.0,0.0,84,0.08,,SKC,0.36,VWS V14.00,2013-07-06 21:20:00,
2013-07-06 17:25:00,70.3,65.3,29.12,SSE,147,0.0,0.0,84,0.08,,SKC,0.36,VWS V14.00,2013-07-06 21:25:00,
2013-07-06 17:40:00,69.6,64.9,29.12,SSE,147,0.0,0.0,85,0.12,,SKC,0.44,VWS V14.00,2013-07-06 21:40:00,
2013-07-06 17:50:00,69.6,64.9,29.12,SSW,201,0.0,0.0,85,0.20,,SKC,0.52,VWS V14.00,2013-07-06 21:50:00,
2013-07-06 17:56:00,69.4,64.4,29.12,SSW,201,0.0,0.0,84,0.24,,SKC,0.56,VWS V14.00,2013-07-06 21:56:00,
2013-07-06 18:10:00,69.3,64.6,29.12,SSW,201,0.0,0.0,85,0.32,,SKC,0.64,VWS V14.00,2013-07-06 22:10:00,
2013-07-06 18:16:00,69.1,64.4,29.12,SSW,201,0.0,0.0,85,0.36,,SKC,0.68,VWS V14.00,2013-07-06 22:16:00,
2013-07-06 18:21:00,69.1,64.4,29.12,SSW,201,0.0,0.0,85,0.32,,SKC,0.68,VWS V14.00,2013-07-06 22:21:00,
2013-07-06 18:30:00,68.9,64.6,29.12,SSW,201,0.0,0.0,86,0.32,,SKC,0.68,VWS V14.00,2013-07-06 22:30:00,
2013-07-06 18:40:00,68.9,64.6,29.12,SSW,201,0.0,0.0,86,0.36,,SKC,0.72,VWS V14.00,2013-07-06 22:40:00,
2013-07-06 19:00:00,68.7,64.7,29.09,SSW,201,0.0,0.0,87,0.20,,SKC,0.72,VWS V14.00,2013-07-06 23:00:00,
2013-07-06 19:12:00,68.9,65.2,29.09,South,188,2.7,2.7,88,0.08,,SKC,0.72,VWS V14.00,2013-07-06 23:12:00,
2013-07-06 19:33:00,68.7,65.0,29.12,SSW,200,0.0,0.0,88,0.08,,SKC,0.76,VWS V14.00,2013-07-06 23:33:00,
2013-07-06 19:38:00,68.7,65.0,29.12,SSW,200,0.0,0.0,88,0.08,,SKC,0.76,VWS V14.00,2013-07-06 23:38:00,
2013-07-06 19:43:00,68.7,65.0,29.12,SSW,200,0.0,0.0,88,0.04,,SKC,0.76,VWS V14.00,2013-07-06 23:43:00,
2013-07-06 19:48:00,68.7,65.0,29.12,SSW,200,0.0,0.0,88,0.04,,SKC,0.76,VWS V14.00,2013-07-06 23:48:00,
2013-07-06 19:58:00,68.7,65.0,29.12,SSW,200,0.0,0.0,88,0.04,,SKC,0.76,VWS V14.00,2013-07-06 23:58:00,
2013-07-06 20:08:00,68.7,65.3,29.12,SSW,200,0.0,0.0,89,0.04,,SKC,0.76,VWS V14.00,2013-07-07 00:08:00,
2013-07-06 20:18:00,68.7,65.3,29.12,SSW,200,0.0,0.0,89,0.04,,SKC,0.76,VWS V14.00,2013-07-07 00:18:00,
2013-07-06 20:23:00,68.7,65.3,29.12,SSW,200,0.0,0.0,89,0.00,,SKC,0.76,VWS V14.00,2013-07-07 00:23:00,
2013-07-06 20:29:00,68.5,65.2,29.12,SSW,200,0.0,0.0,89,0.00,,SKC,0.76,VWS V14.00,2013-07-07 00:29:00,
2013-07-06 20:34:00,68.4,65.0,29.12,SSW,200,0.0,0.0,89,0.00,,SKC,0.76,VWS V14.00,2013-07-07 00:34:00,
2013-07-06 20:39:00,68.4,65.0,29.12,SSW,200,0.0,0.0,89,0.00,,SKC,0.76,VWS V14.00,2013-07-07 00:39:00,
2013-07-06 20:49:00,68.2,64.8,29.12,SSW,200,0.0,0.0,89,0.00,,SKC,0.76,VWS V14.00,2013-07-07 00:49:00,
2013-07-06 20:54:00,68.2,64.8,29.12,SSW,200,0.0,0.0,89,0.00,,SKC,0.76,VWS V14.00,2013-07-07 00:54:00,
2013-07-06 21:00:00,68.2,65.1,29.12,SSW,200,0.0,0.0,90,0.00,,SKC,0.76,VWS V14.00,2013-07-07 01:00:00,
2013-07-06 21:09:00,68.0,65.0,29.12,SSW,200,0.0,0.0,90,0.00,,SKC,0.76,VWS V14.00,2013-07-07 01:09:00,
2013-07-06 21:20:00,68.0,65.0,29.12,SSW,200,0.0,0.0,90,0.00,,SKC,0.76,VWS V14.00,2013-07-07 01:20:00,
2013-07-06 21:34:00,68.0,65.0,29.12,SSW,200,0.0,0.0,90,0.00,,SKC,0.76,VWS V14.00,2013-07-07 01:34:00,
2013-07-06 21:45:00,68.0,65.0,29.12,SSW,200,0.0,0.0,90,0.00,,SKC,0.76,VWS V14.00,2013-07-07 01:45:00,
2013-07-06 21:50:00,68.0,65.0,29.12,SSW,200,0.0,0.0,90,0.00,,SKC,0.76,VWS V14.00,2013-07-07 01:50:00,
2013-07-06 22:00:00,67.8,65.1,29.12,NNE,33,0.0,2.7,91,0.00,,SKC,0.76,VWS V14.00,2013-07-07 02:00:00,
2013-07-06 22:05:00,67.8,65.1,29.12,NNE,33,0.0,0.0,91,0.00,,SKC,0.76,VWS V14.00,2013-07-07 02:05:00,
2013-07-06 22:10:00,67.8,65.1,29.12,NNE,33,0.0,0.0,91,0.00,,SKC,0.76,VWS V14.00,2013-07-07 02:10:00,
2013-07-06 22:15:00,67.8,65.1,29.12,NNE,33,0.0,0.0,91,0.00,,SKC,0.76,VWS V14.00,2013-07-07 02:15:00,
2013-07-06 22:20:00,67.8,65.1,29.12,NE,36,0.0,0.0,91,0.00,,SKC,0.76,VWS V14.00,2013-07-07 02:20:00,
2013-07-06 22:30:00,67.8,65.1,29.12,NE,38,0.0,0.0,91,0.00,,SKC,0.76,VWS V14.00,2013-07-07 02:30:00,
2013-07-06 22:40:00,67.8,65.1,29.12,NNE,25,0.0,2.7,91,0.04,,SKC,0.80,VWS V14.00,2013-07-07 02:40:00,
2013-07-06 22:45:00,67.8,65.1,29.12,NNE,25,0.0,0.0,91,0.04,,SKC,0.80,VWS V14.00,2013-07-07 02:45:00,
2013-07-06 22:50:00,67.8,65.1,29.12,NNE,32,0.0,3.1,91,0.04,,SKC,0.80,VWS V14.00,2013-07-07 02:50:00,
2013-07-06 23:00:00,67.8,65.1,29.12,NE,37,0.0,3.1,91,0.04,,SKC,0.80,VWS V14.00,2013-07-07 03:00:00,
2013-07-06 23:26:00,67.8,65.4,29.12,NE,35,0.0,0.0,92,0.04,,SKC,0.80,VWS V14.00,2013-07-07 03:26:00,
2013-07-06 23:42:00,68.0,65.3,29.12,NE,35,0.0,0.0,91,0.00,,SKC,0.80,VWS V14.00,2013-07-07 03:42:00,
2013-07-06 23:47:00,68.0,65.3,29.12,NE,35,0.0,0.0,91,0.00,,SKC,0.80,VWS V14.00,2013-07-07 03:47:00,
2013-07-06 23:52:00,68.0,65.3,29.12,NE,35,0.0,0.0,91,0.00,,SKC,0.80,VWS V14.00,2013-07-07 03:52:00,